Time,TemperatureF,DewpointF,PressureIn,WindDirection,WindDirectionDegrees,WindSpeedMPH,WindSpeedGustMPH,Humidity,HourlyPrecipIn,Conditions,Clouds,dailyrainin,SolarRadiationWatts/m^2,SoftwareType,DateUTC
2013-04-24 00:01:00,43.4,41.8,30.21,East,94,2.0,3.0,94,0.00,,,0.00,0,Wunderground v.1.15,2013-04-24 04:01:00,
2013-04-24 00:02:00,43.4,41.8,30.21,NE,38,2.0,6.0,94,0.00,,,0.00,0,Wunderground v.1.15,2013-04-24 04:02:00,
2013-04-24 00:03:00,43.4,41.8,30.21,NE,55,3.0,6.0,94,0.00,,,0.00,0,Wunderground v.1.15,2013-04-24 04:03:00,
2013-04-24 00:08:00,43.4,41.8,30.20,NNE,23,3.0,6.0,94,0.00,,,0.00,0,Wunderground v.1.15,2013-04-24 04:08:00,
2013-04-24 00:13:00,43.4,42.1,30.20,NNW,337,2.0,4.0,95,0.00,,,0.00,0,Wunderground v.1.15,2013-04-24 04:13:00,
2013-04-24 00:14:00,43.4,42.1,30.20,NNW,342,2.0,4.0,95,0.00,,,0.00,0,Wunderground v.1.15,2013-04-24 04:14:00,
2013-04-24 00:19:00,43.4,42.1,30.19,North,360,2.0,5.0,95,0.00,,,0.00,0,Wunderground v.1.15,2013-04-24 04:19:00,
2013-04-24 00:25:00,43.4,42.1,30.19,NNE,20,3.0,4.0,95,0.00,,,0.01,0,Wunderground v.1.15,2013-04-24 04:25:00,
2013-04-24 00:31:00,43.4,42.1,30.19,NNW,348,3.0,5.0,95,0.00,,,0.01,0,Wunderground v.1.15,2013-04-24 04:31:00,
2013-04-24 00:36:00,43.3,42.0,30.18,North,11,3.0,5.0,95,0.00,,,0.01,0,Wunderground v.1.15,2013-04-24 04:36:00,
2013-04-24 00:42:00,43.2,41.9,30.18,NNW,344,3.0,4.0,95,0.00,,,0.01,0,Wunderground v.1.15,2013-04-24 04:42:00,
2013-04-24 00:47:00,43.1,41.8,30.17,NNW,331,3.0,4.0,95,0.00,,,0.01,0,Wunderground v.1.15,2013-04-24 04:47:00,
2013-04-24 00:52:00,43.0,41.7,30.17,NW,319,3.0,3.0,95,0.00,,,0.01,0,Wunderground v.1.15,2013-04-24 04:52:00,
2013-04-24 00:57:00,42.9,41.6,30.17,North,351,3.0,3.0,95,0.00,,,0.01,0,Wunderground v.1.15,2013-04-24 04:57:00,
2013-04-24 01:03:00,42.8,41.5,30.16,North,5,2.0,6.0,95,0.00,,,0.01,0,Wunderground v.1.15,2013-04-24 05:03:00,
2013-04-24 01:08:00,42.7,41.6,30.16,NNW,334,3.0,6.0,96,0.00,,,0.01,0,Wunderground v.1.15,2013-04-24 05:08:00,
2013-04-24 01:13:00,42.7,41.6,30.16,NNW,333,3.0,3.0,96,0.00,,,0.01,0,Wunderground v.1.15,2013-04-24 05:13:00,
2013-04-24 01:19:00,42.6,41.5,30.15,North,5,3.0,4.0,96,0.00,,,0.02,0,Wunderground v.1.15,2013-04-24 05:19:00,
2013-04-24 01:25:00,42.5,41.4,30.15,WNW,296,2.0,4.0,96,0.00,,,0.02,0,Wunderground v.1.15,2013-04-24 05:25:00,
2013-04-24 01:31:00,42.5,41.4,30.15,North,350,3.0,4.0,96,0.00,,,0.02,0,Wunderground v.1.15,2013-04-24 05:31:00,
2013-04-24 01:37:00,42.4,41.3,30.14,NNE,33,3.0,6.0,96,0.00,,,0.02,0,Wunderground v.1.15,2013-04-24 05:37:00,
2013-04-24 01:42:00,42.4,41.3,30.14,NNW,343,3.0,5.0,96,0.00,,,0.02,0,Wunderground v.1.15,2013-04-24 05:42:00,
2013-04-24 01:47:00,42.3,41.2,30.14,NNW,343,3.0,5.0,96,0.00,,,0.02,0,Wunderground v.1.15,2013-04-24 05:47:00,
2013-04-24 01:52:00,42.3,41.2,30.13,WNW,292,3.0,4.0,96,0.00,,,0.02,0,Wunderground v.1.15,2013-04-24 05:52:00,
2013-04-24 01:57:00,42.3,41.2,30.13,North,355,3.0,5.0,96,0.00,,,0.02,0,Wunderground v.1.15,2013-04-24 05:57:00,
2013-04-24 02:02:00,42.3,41.2,30.12,NNW,334,3.0,6.0,96,0.00,,,0.02,0,Wunderground v.1.15,2013-04-24 06:02:00,
2013-04-24 02:07:00,42.3,41.5,30.12,NNW,347,4.0,7.0,97,0.00,,,0.02,0,Wunderground v.1.15,2013-04-24 06:07:00,
2013-04-24 02:12:00,42.2,41.4,30.12,NE,53,3.0,4.0,97,0.00,,,0.02,0,Wunderground v.1.15,2013-04-24 06:12:00,
2013-04-24 02:17:00,42.3,41.2,30.11,North,351,2.0,4.0,96,0.00,,,0.02,0,Wunderground v.1.15,2013-04-24 06:17:00,
2013-04-24 02:23:00,42.2,41.4,30.11,NNE,26,2.0,5.0,97,0.00,,,0.02,0,Wunderground v.1.15,2013-04-24 06:23:00,
2013-04-24 02:29:00,42.2,41.4,30.10,NE,53,3.0,5.0,97,0.00,,,0.02,0,Wunderground v.1.15,2013-04-24 06:29:00,
2013-04-24 02:34:00,42.1,41.3,30.10,NNW,331,3.0,6.0,97,0.00,,,0.02,0,Wunderground v.1.15,2013-04-24 06:34:00,
2013-04-24 02:39:00,42.2,41.4,30.09,NNW,343,4.0,6.0,97,0.00,,,0.03,0,Wunderground v.1.15,2013-04-24 06:39:00,
2013-04-24 02:45:00,42.1,41.3,30.09,North,355,4.0,7.0,97,0.00,,,0.03,0,Wunderground v.1.15,2013-04-24 06:45:00,
2013-04-24 02:50:00,42.1,41.3,30.08,NNW,344,3.0,3.0,97,0.00,,,0.03,0,Wunderground v.1.15,2013-04-24 06:50:00,
2013-04-24 02:55:00,42.2,41.4,30.08,NNW,330,3.0,4.0,97,0.00,,,0.03,0,Wunderground v.1.15,2013-04-24 06:55:00,
2013-04-24 03:00:00,42.2,41.4,30.08,NNE,16,3.0,3.0,97,0.00,,,0.03,0,Wunderground v.1.15,2013-04-24 07:00:00,
2013-04-24 03:06:00,42.3,41.5,30.07,North,5,2.0,4.0,97,0.00,,,0.03,0,Wunderground v.1.15,2013-04-24 07:06:00,
2013-04-24 03:11:00,42.3,41.5,30.07,WNW,294,1.0,2.0,97,0.00,,,0.03,0,Wunderground v.1.15,2013-04-24 07:11:00,
2013-04-24 03:16:00,42.3,41.5,30.07,NNW,346,3.0,6.0,97,0.00,,,0.03,0,Wunderground v.1.15,2013-04-24 07:16:00,
2013-04-24 03:21:00,42.4,41.6,30.06,North,5,3.0,4.0,97,0.00,,,0.03,0,Wunderground v.1.15,2013-04-24 07:21:00,
2013-04-24 03:26:00,42.5,41.7,30.05,NNE,30,3.0,7.0,97,0.00,,,0.03,0,Wunderground v.1.15,2013-04-24 07:26:00,
2013-04-24 03:32:00,42.5,41.7,30.05,North,350,3.0,5.0,97,0.00,,,0.03,0,Wunderground v.1.15,2013-04-24 07:32:00,
2013-04-24 03:37:00,42.5,41.7,30.04,NE,34,3.0,5.0,97,0.00,,,0.03,0,Wunderground v.1.15,2013-04-24 07:37:00,
2013-04-24 03:42:00,42.6,41.8,30.04,NNE,13,4.0,4.0,97,0.00,,,0.03,0,Wunderground v.1.15,2013-04-24 07:42:00,
2013-04-24 03:47:00,42.7,41.9,30.03,NNE,19,3.0,5.0,97,0.00,,,0.03,0,Wunderground v.1.15,2013-04-24 07:47:00,
2013-04-24 03:53:00,42.7,41.9,30.03,NW,315,2.0,5.0,97,0.00,,,0.03,0,Wunderground v.1.15,2013-04-24 07:53:00,
2013-04-24 03:59:00,42.7,41.9,30.02,NNE,20,5.0,7.0,97,0.00,,,0.03,0,Wunderground v.1.15,2013-04-24 07:59:00,
2013-04-24 04:04:00,42.8,42.0,30.02,East,101,4.0,5.0,97,0.00,,,0.03,0,Wunderground v.1.15,2013-04-24 08:04:00,
2013-04-24 04:09:00,42.8,42.0,30.02,NNW,346,3.0,5.0,97,0.00,,,0.03,0,Wunderground v.1.15,2013-04-24 08:09:00,
2013-04-24 04:15:00,42.8,42.0,30.02,NNW,342,3.0,5.0,97,0.00,,,0.04,0,Wunderground v.1.15,2013-04-24 08:15:00,
2013-04-24 04:20:00,42.9,42.1,30.02,North,360,3.0,3.0,97,0.00,,,0.04,0,Wunderground v.1.15,2013-04-24 08:20:00,
2013-04-24 04:25:00,42.9,42.1,30.02,North,350,3.0,3.0,97,0.00,,,0.04,0,Wunderground v.1.15,2013-04-24 08:25:00,
2013-04-24 04:30:00,42.9,42.1,30.01,North,360,3.0,3.0,97,0.00,,,0.04,0,Wunderground v.1.15,2013-04-24 08:30:00,
2013-04-24 04:36:00,43.0,42.2,30.01,NNE,29,4.0,9.0,97,0.00,,,0.04,0,Wunderground v.1.15,2013-04-24 08:36:00,
2013-04-24 04:41:00,43.0,42.2,30.01,NNW,330,4.0,5.0,97,0.00,,,0.04,0,Wunderground v.1.15,2013-04-24 08:41:00,
2013-04-24 04:46:00,43.1,42.3,30.01,North,360,4.0,5.0,97,0.00,,,0.04,0,Wunderground v.1.15,2013-04-24 08:46:00,
2013-04-24 04:52:00,43.1,42.3,30.00,NNE,24,4.0,6.0,97,0.00,,,0.04,0,Wunderground v.1.15,2013-04-24 08:52:00,
2013-04-24 04:58:00,43.1,42.3,30.00,North,355,4.0,6.0,97,0.00,,,0.04,0,Wunderground v.1.15,2013-04-24 08:58:00,
2013-04-24 05:03:00,43.1,42.3,30.00,NNW,329,3.0,7.0,97,0.00,,,0.04,0,Wunderground v.1.15,2013-04-24 09:03:00,
2013-04-24 05:08:00,43.1,42.3,30.00,NNW,328,3.0,7.0,97,0.00,,,0.04,0,Wunderground v.1.15,2013-04-24 09:08:00,
2013-04-24 05:13:00,43.2,42.4,30.00,NW,325,3.0,4.0,97,0.00,,,0.05,0,Wunderground v.1.15,2013-04-24 09:13:00,
2013-04-24 05:18:00,43.2,42.4,29.99,NNW,336,3.0,6.0,97,0.00,,,0.05,0,Wunderground v.1.15,2013-04-24 09:18:00,
2013-04-24 05:23:00,43.2,42.4,29.99,NNW,339,3.0,7.0,97,0.00,,,0.05,0,Wunderground v.1.15,2013-04-24 09:23:00,
2013-04-24 05:28:00,43.3,42.5,29.99,North,355,3.0,7.0,97,0.04,,,0.06,0,Wunderground v.1.15,2013-04-24 09:28:00,
2013-04-24 05:33:00,43.3,42.5,29.99,North,355,4.0,5.0,97,0.04,,,0.06,0,Wunderground v.1.15,2013-04-24 09:33:00,
2013-04-24 05:38:00,43.3,42.5,29.99,North,350,4.0,6.0,97,0.04,,,0.06,0,Wunderground v.1.15,2013-04-24 09:38:00,
2013-04-24 05:43:00,43.3,42.5,29.99,NE,43,4.0,5.0,97,0.04,,,0.07,0,Wunderground v.1.15,2013-04-24 09:43:00,
2013-04-24 05:48:00,43.3,42.5,29.98,NNE,20,3.0,6.0,97,0.04,,,0.07,0,Wunderground v.1.15,2013-04-24 09:48:00,
2013-04-24 05:54:00,43.4,42.9,29.98,NE,34,4.0,5.0,98,0.07,,,0.08,0,Wunderground v.1.15,2013-04-24 09:54:00,
2013-04-24 06:00:00,43.4,42.9,29.98,NNW,329,4.0,4.0,98,0.07,,,0.08,0,Wunderground v.1.15,2013-04-24 10:00:00,
2013-04-24 06:05:00,43.4,42.9,29.98,North,5,4.0,7.0,98,0.06,,,0.09,0,Wunderground v.1.15,2013-04-24 10:05:00,
2013-04-24 06:10:00,43.4,42.9,29.98,NNW,338,5.0,7.0,98,0.11,,,0.10,0,Wunderground v.1.15,2013-04-24 10:10:00,
2013-04-24 06:15:00,43.5,43.0,29.98,North,355,5.0,10.0,98,0.08,,,0.11,5,Wunderground v.1.15,2013-04-24 10:15:00,
2013-04-24 06:21:00,43.5,43.0,29.97,NW,311,5.0,8.0,98,0.08,,,0.12,5,Wunderground v.1.15,2013-04-24 10:21:00,
2013-04-24 06:27:00,43.5,43.0,29.98,North,5,5.0,8.0,98,0.08,,,0.12,9,Wunderground v.1.15,2013-04-24 10:27:00,
2013-04-24 06:32:00,43.5,43.0,29.97,NNW,340,5.0,7.0,98,0.05,,,0.12,9,Wunderground v.1.15,2013-04-24 10:32:00,
2013-04-24 06:37:00,43.5,43.0,29.97,North,355,5.0,7.0,98,0.04,,,0.13,12,Wunderground v.1.15,2013-04-24 10:37:00,
2013-04-24 06:42:00,43.6,43.1,29.97,NNE,23,5.0,8.0,98,0.04,,,0.13,12,Wunderground v.1.15,2013-04-24 10:42:00,
2013-04-24 06:48:00,43.6,43.1,29.98,NNE,23,5.0,8.0,98,0.07,,,0.14,11,Wunderground v.1.15,2013-04-24 10:48:00,
2013-04-24 06:53:00,43.6,43.1,29.98,NW,322,4.0,6.0,98,0.07,,,0.14,12,Wunderground v.1.15,2013-04-24 10:53:00,
2013-04-24 06:58:00,43.7,43.2,29.97,North,360,4.0,7.0,98,0.06,,,0.15,14,Wunderground v.1.15,2013-04-24 10:58:00,
2013-04-24 07:03:00,43.7,43.2,29.97,NNW,342,4.0,7.0,98,0.10,,,0.16,16,Wunderground v.1.15,2013-04-24 11:03:00,
2013-04-24 07:09:00,43.7,43.2,29.97,NW,324,4.0,7.0,98,0.07,,,0.17,16,Wunderground v.1.15,2013-04-24 11:09:00,
2013-04-24 07:14:00,43.7,43.2,29.97,NW,324,5.0,6.0,98,0.07,,,0.17,16,Wunderground v.1.15,2013-04-24 11:14:00,
2013-04-24 07:19:00,43.8,43.3,29.97,NE,39,5.0,7.0,98,0.09,,,0.18,14,Wunderground v.1.15,2013-04-24 11:19:00,
2013-04-24 07:24:00,43.8,43.3,29.97,NNW,327,5.0,8.0,98,0.07,,,0.18,21,Wunderground v.1.15,2013-04-24 11:24:00,
2013-04-24 07:29:00,43.7,43.2,29.96,NNW,348,5.0,8.0,98,0.06,,,0.19,33,Wunderground v.1.15,2013-04-24 11:29:00,
2013-04-24 07:35:00,43.7,43.2,29.96,North,5,6.0,7.0,98,0.06,,,0.19,42,Wunderground v.1.15,2013-04-24 11:35:00,
2013-04-24 07:40:00,43.8,43.3,29.96,North,11,7.0,9.0,98,0.06,,,0.20,37,Wunderground v.1.15,2013-04-24 11:40:00,
2013-04-24 07:46:00,43.8,43.3,29.96,NNE,14,6.0,9.0,98,0.06,,,0.20,39,Wunderground v.1.15,2013-04-24 11:46:00,
2013-04-24 07:51:00,43.9,43.4,29.96,North,360,6.0,6.0,98,0.04,,,0.20,56,Wunderground v.1.15,2013-04-24 11:51:00,
2013-04-24 07:56:00,44.0,43.5,29.95,NNW,343,6.0,7.0,98,0.00,,,0.21,70,Wunderground v.1.15,2013-04-24 11:56:00,
2013-04-24 08:01:00,44.1,43.6,29.95,NNW,348,5.0,6.0,98,0.00,,,0.21,67,Wunderground v.1.15,2013-04-24 12:01:00,
2013-04-24 08:07:00,44.2,43.7,29.95,North,10,5.0,7.0,98,0.00,,,0.21,63,Wunderground v.1.15,2013-04-24 12:07:00,
2013-04-24 08:12:00,44.2,43.7,29.95,NNW,343,5.0,7.0,98,0.00,,,0.21,72,Wunderground v.1.15,2013-04-24 12:12:00,
2013-04-24 08:18:00,44.3,43.8,29.94,NNW,346,5.0,8.0,98,0.00,,,0.22,79,Wunderground v.1.15,2013-04-24 12:18:00,
2013-04-24 08:24:00,44.4,43.9,29.94,North,351,6.0,8.0,98,0.00,,,0.22,88,Wunderground v.1.15,2013-04-24 12:24:00,
2013-04-24 08:29:00,44.5,44.0,29.94,NNE,31,6.0,10.0,98,0.00,,,0.22,67,Wunderground v.1.15,2013-04-24 12:29:00,
2013-04-24 08:35:00,44.6,44.1,29.94,NNE,28,6.0,8.0,98,0.00,,,0.22,62,Wunderground v.1.15,2013-04-24 12:35:00,
2013-04-24 08:40:00,44.7,44.2,29.94,NE,37,5.0,5.0,98,0.00,,,0.22,46,Wunderground v.1.15,2013-04-24 12:40:00,
2013-04-24 08:45:00,44.8,44.3,29.95,NNE,27,5.0,6.0,98,0.00,,,0.23,65,Wunderground v.1.15,2013-04-24 12:45:00,
2013-04-24 08:51:00,44.9,44.4,29.95,NNW,344,5.0,7.0,98,0.13,,,0.24,70,Wunderground v.1.15,2013-04-24 12:51:00,
2013-04-24 08:56:00,44.9,44.4,29.94,North,360,6.0,8.0,98,0.12,,,0.25,74,Wunderground v.1.15,2013-04-24 12:56:00,
2013-04-24 09:01:00,45.0,44.5,29.94,NNW,344,6.0,7.0,98,0.08,,,0.26,84,Wunderground v.1.15,2013-04-24 13:01:00,
2013-04-24 09:06:00,45.1,44.6,29.93,North,360,6.0,7.0,98,0.08,,,0.26,90,Wunderground v.1.15,2013-04-24 13:06:00,
2013-04-24 09:12:00,45.2,44.7,29.93,NNW,328,5.0,5.0,98,0.05,,,0.26,95,Wunderground v.1.15,2013-04-24 13:12:00,
2013-04-24 09:17:00,45.3,44.8,29.93,North,9,5.0,7.0,98,0.00,,,0.26,104,Wunderground v.1.15,2013-04-24 13:17:00,
2013-04-24 09:22:00,45.4,44.9,29.93,NE,55,5.0,8.0,98,0.00,,,0.26,114,Wunderground v.1.15,2013-04-24 13:22:00,
2013-04-24 09:27:00,45.6,45.1,29.92,NNW,341,5.0,8.0,98,0.00,,,0.26,132,Wunderground v.1.15,2013-04-24 13:27:00,
2013-04-24 09:32:00,45.7,45.2,29.92,North,5,5.0,7.0,98,0.00,,,0.26,141,Wunderground v.1.15,2013-04-24 13:32:00,
2013-04-24 09:38:00,45.9,45.4,29.92,NNW,341,5.0,7.0,98,0.00,,,0.27,142,Wunderground v.1.15,2013-04-24 13:38:00,
2013-04-24 09:44:00,46.0,45.5,29.92,NNE,16,5.0,5.0,98,0.00,,,0.27,142,Wunderground v.1.15,2013-04-24 13:44:00,
2013-04-24 09:50:00,46.1,45.6,29.92,North,349,5.0,6.0,98,0.00,,,0.27,153,Wunderground v.1.15,2013-04-24 13:50:00,
2013-04-24 09:55:00,46.2,45.7,29.92,NNW,333,5.0,7.0,98,0.00,,,0.27,149,Wunderground v.1.15,2013-04-24 13:55:00,
2013-04-24 10:00:00,46.4,45.9,29.92,North,5,5.0,5.0,98,0.00,,,0.27,135,Wunderground v.1.15,2013-04-24 14:00:00,
2013-04-24 10:06:00,46.5,46.0,29.92,NNW,346,5.0,7.0,98,0.00,,,0.28,169,Wunderground v.1.15,2013-04-24 14:06:00,
2013-04-24 10:12:00,46.6,46.1,29.92,NE,34,5.0,7.0,98,0.00,,,0.28,221,Wunderground v.1.15,2013-04-24 14:12:00,
2013-04-24 10:17:00,46.8,46.3,29.92,NNW,328,5.0,7.0,98,0.00,,,0.28,246,Wunderground v.1.15,2013-04-24 14:17:00,
2013-04-24 10:22:00,46.9,46.4,29.92,NNW,337,4.0,5.0,98,0.00,,,0.28,209,Wunderground v.1.15,2013-04-24 14:22:00,
2013-04-24 10:28:00,47.0,46.5,29.91,NNW,340,5.0,8.0,98,0.00,,,0.28,171,Wunderground v.1.15,2013-04-24 14:28:00,
2013-04-24 10:33:00,47.1,46.6,29.92,NW,321,6.0,8.0,98,0.00,,,0.28,146,Wunderground v.1.15,2013-04-24 14:33:00,
2013-04-24 10:38:00,47.1,46.6,29.91,North,360,5.0,8.0,98,0.00,,,0.28,155,Wunderground v.1.15,2013-04-24 14:38:00,
2013-04-24 10:43:00,47.1,46.6,29.91,NNE,24,6.0,10.0,98,0.00,,,0.28,148,Wunderground v.1.15,2013-04-24 14:43:00,
2013-04-24 10:48:00,47.1,46.6,29.91,NW,309,7.0,10.0,98,0.00,,,0.28,151,Wunderground v.1.15,2013-04-24 14:48:00,
2013-04-24 10:54:00,47.2,46.7,29.91,North,11,6.0,9.0,98,0.00,,,0.28,139,Wunderground v.1.15,2013-04-24 14:54:00,
2013-04-24 10:59:00,47.4,46.9,29.90,NNW,337,5.0,9.0,98,0.00,,,0.28,134,Wunderground v.1.15,2013-04-24 14:59:00,
2013-04-24 11:04:00,47.6,47.1,29.90,NNW,332,5.0,7.0,98,0.00,,,0.28,148,Wunderground v.1.15,2013-04-24 15:04:00,
2013-04-24 11:09:00,47.6,47.1,29.90,NNW,327,5.0,8.0,98,0.00,,,0.28,141,Wunderground v.1.15,2013-04-24 15:09:00,
2013-04-24 11:14:00,47.7,47.2,29.90,North,360,5.0,6.0,98,0.00,,,0.28,156,Wunderground v.1.15,2013-04-24 15:14:00,
2013-04-24 11:20:00,47.6,47.1,29.90,North,355,5.0,5.0,98,0.00,,,0.28,174,Wunderground v.1.15,2013-04-24 15:20:00,
2013-04-24 11:25:00,47.7,47.2,29.89,North,5,5.0,8.0,98,0.00,,,0.28,207,Wunderground v.1.15,2013-04-24 15:25:00,
2013-04-24 11:31:00,47.9,47.4,29.89,NE,46,5.0,6.0,98,0.00,,,0.29,188,Wunderground v.1.15,2013-04-24 15:31:00,
2013-04-24 11:36:00,47.9,47.4,29.89,North,5,6.0,10.0,98,0.00,,,0.29,209,Wunderground v.1.15,2013-04-24 15:36:00,
2013-04-24 11:41:00,48.0,47.5,29.88,NNE,12,6.0,6.0,98,0.00,,,0.29,185,Wunderground v.1.15,2013-04-24 15:41:00,
2013-04-24 11:46:00,48.2,47.7,29.88,North,5,6.0,10.0,98,0.00,,,0.29,200,Wunderground v.1.15,2013-04-24 15:46:00,
2013-04-24 11:52:00,48.3,47.8,29.88,NNW,327,7.0,9.0,98,0.00,,,0.29,237,Wunderground v.1.15,2013-04-24 15:52:00,
2013-04-24 11:57:00,48.4,47.9,29.87,WNW,300,7.0,9.0,98,0.00,,,0.29,271,Wunderground v.1.15,2013-04-24 15:57:00,
2013-04-24 12:03:00,48.6,48.1,29.87,NNW,328,7.0,11.0,98,0.00,,,0.29,288,Wunderground v.1.15,2013-04-24 16:03:00,
2013-04-24 12:08:00,48.7,48.2,29.87,NNW,346,8.0,11.0,98,0.00,,,0.29,269,Wunderground v.1.15,2013-04-24 16:08:00,
2013-04-24 12:14:00,49.0,48.5,29.86,NNW,344,7.0,10.0,98,0.00,,,0.29,320,Wunderground v.1.15,2013-04-24 16:14:00,
2013-04-24 12:19:00,49.2,48.7,29.86,NNE,19,7.0,10.0,98,0.00,,,0.29,251,Wunderground v.1.15,2013-04-24 16:19:00,
2013-04-24 12:24:00,49.2,48.4,29.86,NNW,336,7.0,13.0,97,0.00,,,0.29,267,Wunderground v.1.15,2013-04-24 16:24:00,
2013-04-24 12:29:00,49.3,48.5,29.86,NNE,24,8.0,13.0,97,0.00,,,0.29,378,Wunderground v.1.15,2013-04-24 16:29:00,
2013-04-24 12:34:00,49.6,48.8,29.86,North,5,7.0,9.0,97,0.00,,,0.29,383,Wunderground v.1.15,2013-04-24 16:34:00,
2013-04-24 12:39:00,49.9,49.1,29.86,North,351,6.0,15.0,97,0.00,,,0.29,320,Wunderground v.1.15,2013-04-24 16:39:00,
2013-04-24 12:44:00,50.1,49.3,29.85,NE,51,7.0,12.0,97,0.00,,,0.29,343,Wunderground v.1.15,2013-04-24 16:44:00,
2013-04-24 12:49:00,50.3,49.5,29.85,WNW,282,8.0,12.0,97,0.00,,,0.29,348,Wunderground v.1.15,2013-04-24 16:49:00,
2013-04-24 12:54:00,50.5,49.7,29.84,North,355,7.0,10.0,97,0.00,,,0.29,487,Wunderground v.1.15,2013-04-24 16:54:00,
2013-04-24 12:59:00,50.8,50.0,29.83,NNE,32,6.0,10.0,97,0.00,,,0.29,492,Wunderground v.1.15,2013-04-24 16:59:00,
2013-04-24 13:04:00,51.0,49.9,29.83,NNW,343,6.0,10.0,96,0.00,,,0.29,545,Wunderground v.1.15,2013-04-24 17:04:00,
2013-04-24 13:10:00,51.5,50.4,29.83,North,355,5.0,5.0,96,0.00,,,0.29,360,Wunderground v.1.15,2013-04-24 17:10:00,
2013-04-24 13:15:00,51.6,50.5,29.83,North,350,5.0,9.0,96,0.00,,,0.29,267,Wunderground v.1.15,2013-04-24 17:15:00,
2013-04-24 13:20:00,51.5,50.1,29.83,NNW,341,6.0,6.0,95,0.00,,,0.29,214,Wunderground v.1.15,2013-04-24 17:20:00,
2013-04-24 13:26:00,51.4,50.0,29.83,North,5,6.0,10.0,95,0.00,,,0.29,236,Wunderground v.1.15,2013-04-24 17:26:00,
2013-04-24 13:31:00,51.4,50.0,29.83,NNW,331,5.0,7.0,95,0.00,,,0.29,236,Wunderground v.1.15,2013-04-24 17:31:00,
2013-04-24 13:37:00,51.5,49.8,29.83,North,350,5.0,7.0,94,0.00,,,0.29,195,Wunderground v.1.15,2013-04-24 17:37:00,
2013-04-24 13:43:00,51.6,49.9,29.83,North,355,4.0,9.0,94,0.00,,,0.29,213,Wunderground v.1.15,2013-04-24 17:43:00,
2013-04-24 13:48:00,51.5,49.8,29.84,North,351,4.0,9.0,94,0.00,,,0.29,178,Wunderground v.1.15,2013-04-24 17:48:00,
2013-04-24 13:54:00,51.4,49.4,29.83,NNW,342,5.0,11.0,93,0.00,,,0.29,211,Wunderground v.1.15,2013-04-24 17:54:00,
2013-04-24 13:59:00,51.5,49.5,29.83,North,355,6.0,11.0,93,0.00,,,0.29,295,Wunderground v.1.15,2013-04-24 17:59:00,
2013-04-24 14:04:00,51.7,49.7,29.83,NW,325,6.0,11.0,93,0.00,,,0.29,338,Wunderground v.1.15,2013-04-24 18:04:00,
2013-04-24 14:09:00,52.3,50.3,29.82,North,355,6.0,11.0,93,0.00,,,0.29,443,Wunderground v.1.15,2013-04-24 18:09:00,
2013-04-24 14:14:00,52.7,50.4,29.82,NNE,31,6.0,9.0,92,0.00,,,0.29,459,Wunderground v.1.15,2013-04-24 18:14:00,
2013-04-24 14:19:00,53.0,50.7,29.81,North,355,7.0,9.0,92,0.00,,,0.29,480,Wunderground v.1.15,2013-04-24 18:19:00,
2013-04-24 14:24:00,53.1,51.1,29.81,NE,42,6.0,9.0,93,0.00,,,0.29,645,Wunderground v.1.15,2013-04-24 18:24:00,
2013-04-24 14:29:00,53.3,51.0,29.81,NNE,28,6.0,9.0,92,0.00,,,0.29,490,Wunderground v.1.15,2013-04-24 18:29:00,
2013-04-24 14:35:00,53.8,51.5,29.80,NNE,15,6.0,9.0,92,0.00,,,0.29,552,Wunderground v.1.15,2013-04-24 18:35:00,
2013-04-24 14:40:00,54.4,51.8,29.80,NE,49,5.0,5.0,91,0.00,,,0.29,452,Wunderground v.1.15,2013-04-24 18:40:00,
2013-04-24 14:46:00,54.3,51.1,29.79,NNW,345,6.0,9.0,89,0.00,,,0.29,471,Wunderground v.1.15,2013-04-24 18:46:00,
2013-04-24 14:51:00,54.2,51.0,29.79,NNW,344,7.0,10.0,89,0.00,,,0.29,455,Wunderground v.1.15,2013-04-24 18:51:00,
2013-04-24 14:56:00,54.2,51.0,29.79,NE,36,8.0,10.0,89,0.00,,,0.29,548,Wunderground v.1.15,2013-04-24 18:56:00,
2013-04-24 15:01:00,54.6,51.7,29.78,NNE,27,6.0,7.0,90,0.00,,,0.29,561,Wunderground v.1.15,2013-04-24 19:01:00,
2013-04-24 15:07:00,55.4,52.2,29.78,ENE,65,5.0,7.0,89,0.00,,,0.29,519,Wunderground v.1.15,2013-04-24 19:07:00,
2013-04-24 15:12:00,55.7,51.9,29.77,NNE,30,5.0,11.0,87,0.00,,,0.29,355,Wunderground v.1.15,2013-04-24 19:12:00,
2013-04-24 15:18:00,55.9,51.8,29.77,North,350,5.0,11.0,86,0.00,,,0.29,527,Wunderground v.1.15,2013-04-24 19:18:00,
2013-04-24 15:23:00,56.5,52.4,29.77,North,350,5.0,7.0,86,0.00,,,0.29,469,Wunderground v.1.15,2013-04-24 19:23:00,
2013-04-24 15:28:00,56.4,51.6,29.77,NNW,347,6.0,9.0,84,0.00,,,0.29,540,Wunderground v.1.15,2013-04-24 19:28:00,
2013-04-24 15:34:00,56.1,51.7,29.78,NW,315,7.0,8.0,85,0.00,,,0.29,357,Wunderground v.1.15,2013-04-24 19:34:00,
2013-04-24 15:39:00,55.9,51.5,29.78,ENE,69,6.0,9.0,85,0.00,,,0.29,269,Wunderground v.1.15,2013-04-24 19:39:00,
2013-04-24 15:44:00,56.0,51.9,29.77,NE,35,5.0,7.0,86,0.00,,,0.29,264,Wunderground v.1.15,2013-04-24 19:44:00,
2013-04-24 15:49:00,56.0,51.9,29.77,NNW,333,4.0,7.0,86,0.00,,,0.29,214,Wunderground v.1.15,2013-04-24 19:49:00,
2013-04-24 15:55:00,56.0,51.6,29.76,North,9,4.0,6.0,85,0.00,,,0.29,248,Wunderground v.1.15,2013-04-24 19:55:00,
2013-04-24 16:00:00,56.0,51.9,29.76,NNW,343,4.0,4.0,86,0.00,,,0.29,199,Wunderground v.1.15,2013-04-24 20:00:00,
2013-04-24 16:06:00,56.1,52.0,29.77,NE,51,3.0,6.0,86,0.00,,,0.29,172,Wunderground v.1.15,2013-04-24 20:06:00,
2013-04-24 16:11:00,56.2,52.1,29.77,North,355,2.0,3.0,86,0.00,,,0.29,169,Wunderground v.1.15,2013-04-24 20:11:00,
2013-04-24 16:17:00,56.2,52.1,29.77,North,355,3.0,4.0,86,0.00,,,0.29,158,Wunderground v.1.15,2013-04-24 20:17:00,
2013-04-24 16:22:00,56.3,52.2,29.77,North,360,3.0,5.0,86,0.00,,,0.29,186,Wunderground v.1.15,2013-04-24 20:22:00,
2013-04-24 16:27:00,56.3,52.2,29.77,North,355,3.0,5.0,86,0.00,,,0.29,151,Wunderground v.1.15,2013-04-24 20:27:00,
2013-04-24 16:33:00,56.3,52.2,29.77,NNW,348,3.0,5.0,86,0.00,,,0.29,128,Wunderground v.1.15,2013-04-24 20:33:00,
2013-04-24 16:38:00,56.2,52.1,29.78,NNW,348,2.0,5.0,86,0.00,,,0.29,118,Wunderground v.1.15,2013-04-24 20:38:00,
2013-04-24 16:43:00,56.4,52.3,29.79,WNW,284,1.0,3.0,86,0.00,,,0.29,100,Wunderground v.1.15,2013-04-24 20:43:00,
2013-04-24 16:49:00,56.4,52.3,29.79,WNW,296,1.0,3.0,86,0.00,,,0.29,86,Wunderground v.1.15,2013-04-24 20:49:00,
2013-04-24 16:54:00,56.6,52.5,29.79,WNW,284,1.0,3.0,86,0.00,,,0.29,76,Wunderground v.1.15,2013-04-24 20:54:00,
2013-04-24 17:00:00,56.7,52.6,29.80,WNW,284,1.0,1.0,86,0.00,,,0.29,76,Wunderground v.1.15,2013-04-24 21:00:00,
2013-04-24 17:05:00,56.7,52.6,29.80,WNW,294,1.0,2.0,86,0.00,,,0.29,84,Wunderground v.1.15,2013-04-24 21:05:00,
2013-04-24 17:10:00,56.7,52.6,29.80,West,281,1.0,1.0,86,0.00,,,0.29,83,Wunderground v.1.15,2013-04-24 21:10:00,
2013-04-24 17:15:00,56.7,52.6,29.80,WNW,295,1.0,4.0,86,0.00,,,0.29,102,Wunderground v.1.15,2013-04-24 21:15:00,
2013-04-24 17:20:00,56.6,52.1,29.80,WNW,295,1.0,1.0,85,0.00,,,0.29,95,Wunderground v.1.15,2013-04-24 21:20:00,
2013-04-24 17:26:00,56.7,52.2,29.80,WNW,295,1.0,1.0,85,0.00,,,0.29,93,Wunderground v.1.15,2013-04-24 21:26:00,
2013-04-24 17:31:00,56.7,52.2,29.80,WNW,284,1.0,2.0,85,0.00,,,0.29,95,Wunderground v.1.15,2013-04-24 21:31:00,
2013-04-24 17:36:00,56.7,52.2,29.81,West,271,1.0,2.0,85,0.00,,,0.29,69,Wunderground v.1.15,2013-04-24 21:36:00,
2013-04-24 17:42:00,56.6,52.1,29.81,WSW,250,1.0,3.0,85,0.00,,,0.29,77,Wunderground v.1.15,2013-04-24 21:42:00,
2013-04-24 17:47:00,56.5,52.0,29.81,WSW,242,1.0,3.0,85,0.00,,,0.29,58,Wunderground v.1.15,2013-04-24 21:47:00,
2013-04-24 17:52:00,56.4,51.9,29.81,West,265,1.0,3.0,85,0.00,,,0.29,65,Wunderground v.1.15,2013-04-24 21:52:00,
2013-04-24 17:57:00,56.3,51.8,29.81,WSW,256,1.0,3.0,85,0.00,,,0.29,65,Wunderground v.1.15,2013-04-24 21:57:00,
2013-04-24 18:03:00,56.2,51.7,29.81,WSW,242,1.0,1.0,85,0.00,,,0.29,63,Wunderground v.1.15,2013-04-24 22:03:00,
2013-04-24 18:08:00,56.1,51.7,29.81,West,269,1.0,2.0,85,0.00,,,0.29,84,Wunderground v.1.15,2013-04-24 22:08:00,
2013-04-24 18:14:00,56.2,51.7,29.81,West,275,1.0,1.0,85,0.00,,,0.29,74,Wunderground v.1.15,2013-04-24 22:14:00,
2013-04-24 18:19:00,56.2,51.7,29.81,SW,221,1.0,4.0,85,0.00,,,0.29,100,Wunderground v.1.15,2013-04-24 22:19:00,
2013-04-24 18:24:00,56.2,51.7,29.82,SW,219,1.0,1.0,85,0.00,,,0.29,62,Wunderground v.1.15,2013-04-24 22:24:00,
2013-04-24 18:30:00,56.3,51.8,29.82,SW,219,1.0,1.0,85,0.00,,,0.29,102,Wunderground v.1.15,2013-04-24 22:30:00,
2013-04-24 18:35:00,56.4,51.9,29.82,SW,219,0.0,1.0,85,0.00,,,0.29,77,Wunderground v.1.15,2013-04-24 22:35:00,
2013-04-24 18:40:00,56.4,51.9,29.82,SW,218,0.0,1.0,85,0.00,,,0.29,84,Wunderground v.1.15,2013-04-24 22:40:00,
2013-04-24 18:45:00,56.5,52.0,29.81,SW,218,1.0,2.0,85,0.00,,,0.29,67,Wunderground v.1.15,2013-04-24 22:45:00,
2013-04-24 18:50:00,56.5,52.0,29.82,SSW,198,0.0,0.0,85,0.00,,,0.29,63,Wunderground v.1.15,2013-04-24 22:50:00,
2013-04-24 18:55:00,56.6,52.1,29.82,SSW,198,1.0,3.0,85,0.00,,,0.29,47,Wunderground v.1.15,2013-04-24 22:55:00,
2013-04-24 19:01:00,56.6,51.8,29.82,SSW,198,1.0,1.0,84,0.00,,,0.29,35,Wunderground v.1.15,2013-04-24 23:01:00,
2013-04-24 19:06:00,56.5,51.7,29.81,SSW,198,0.0,2.0,84,0.00,,,0.29,32,Wunderground v.1.15,2013-04-24 23:06:00,
2013-04-24 19:12:00,56.4,51.6,29.81,SSW,198,1.0,3.0,84,0.00,,,0.29,19,Wunderground v.1.15,2013-04-24 23:12:00,
2013-04-24 19:17:00,56.2,51.7,29.81,SSW,202,1.0,4.0,85,0.00,,,0.29,14,Wunderground v.1.15,2013-04-24 23:17:00,
2013-04-24 19:23:00,55.4,51.0,29.81,SSE,154,2.0,6.0,85,0.00,,,0.29,11,Wunderground v.1.15,2013-04-24 23:23:00,
2013-04-24 19:28:00,54.9,50.8,29.81,SE,138,3.0,6.0,86,0.00,,,0.29,7,Wunderground v.1.15,2013-04-24 23:28:00,
2013-04-24 19:34:00,54.3,50.5,29.81,South,183,2.0,4.0,87,0.00,,,0.29,5,Wunderground v.1.15,2013-04-24 23:34:00,
2013-04-24 19:40:00,53.7,49.9,29.81,SSE,163,3.0,3.0,87,0.00,,,0.29,0,Wunderground v.1.15,2013-04-24 23:40:00,
2013-04-24 19:45:00,53.1,49.6,29.82,South,170,3.0,3.0,88,0.00,,,0.29,0,Wunderground v.1.15,2013-04-24 23:45:00,
2013-04-24 19:51:00,52.6,49.1,29.83,SSW,210,2.0,4.0,88,0.00,,,0.29,0,Wunderground v.1.15,2013-04-24 23:51:00,
2013-04-24 19:56:00,52.2,49.1,29.83,South,189,3.0,4.0,89,0.00,,,0.29,0,Wunderground v.1.15,2013-04-24 23:56:00,
2013-04-24 20:01:00,51.9,48.8,29.83,South,169,2.0,3.0,89,0.00,,,0.29,0,Wunderground v.1.15,2013-04-25 00:01:00,
2013-04-24 20:06:00,51.7,48.9,29.83,SSW,199,2.0,4.0,90,0.00,,,0.29,0,Wunderground v.1.15,2013-04-25 00:06:00,
2013-04-24 20:12:00,51.5,48.7,29.84,SSE,167,2.0,2.0,90,0.00,,,0.29,0,Wunderground v.1.15,2013-04-25 00:12:00,
2013-04-24 20:18:00,51.3,48.8,29.84,South,179,1.0,3.0,91,0.00,,,0.29,0,Wunderground v.1.15,2013-04-25 00:18:00,
2013-04-24 20:23:00,51.2,48.7,29.84,South,178,1.0,2.0,91,0.00,,,0.29,0,Wunderground v.1.15,2013-04-25 00:23:00,
2013-04-24 20:29:00,51.1,48.6,29.84,SSE,165,2.0,3.0,91,0.00,,,0.29,0,Wunderground v.1.15,2013-04-25 00:29:00,
2013-04-24 20:34:00,51.0,48.5,29.84,SSE,162,2.0,4.0,91,0.00,,,0.29,0,Wunderground v.1.15,2013-04-25 00:34:00,
2013-04-24 20:39:00,50.9,48.4,29.84,South,176,2.0,4.0,91,0.00,,,0.29,0,Wunderground v.1.15,2013-04-25 00:39:00,
2013-04-24 20:45:00,50.7,48.2,29.85,SSE,153,3.0,7.0,91,0.00,,,0.29,0,Wunderground v.1.15,2013-04-25 00:45:00,
2013-04-24 20:50:00,50.4,47.9,29.84,SSE,158,3.0,5.0,91,0.00,,,0.29,0,Wunderground v.1.15,2013-04-25 00:50:00,
2013-04-24 20:55:00,50.2,47.7,29.85,South,178,3.0,7.0,91,0.00,,,0.29,0,Wunderground v.1.15,2013-04-25 00:55:00,
2013-04-24 21:01:00,50.0,47.5,29.85,SW,226,3.0,3.0,91,0.00,,,0.29,0,Wunderground v.1.15,2013-04-25 01:01:00,
2013-04-24 21:06:00,49.8,47.3,29.84,SSE,157,4.0,7.0,91,0.00,,,0.29,0,Wunderground v.1.15,2013-04-25 01:06:00,
2013-04-24 21:12:00,49.5,47.0,29.84,South,180,4.0,5.0,91,0.00,,,0.29,0,Wunderground v.1.15,2013-04-25 01:12:00,
2013-04-24 21:17:00,49.4,46.9,29.84,South,191,3.0,5.0,91,0.00,,,0.29,0,Wunderground v.1.15,2013-04-25 01:17:00,
2013-04-24 21:23:00,49.0,46.5,29.85,South,174,3.0,7.0,91,0.00,,,0.29,0,Wunderground v.1.15,2013-04-25 01:23:00,
2013-04-24 21:28:00,48.7,46.5,29.85,SSE,166,3.0,7.0,92,0.00,,,0.29,0,Wunderground v.1.15,2013-04-25 01:28:00,
2013-04-24 21:33:00,48.4,46.2,29.85,South,180,4.0,6.0,92,0.00,,,0.29,0,Wunderground v.1.15,2013-04-25 01:33:00,
2013-04-24 21:38:00,48.2,46.0,29.84,SSW,212,5.0,7.0,92,0.00,,,0.29,0,Wunderground v.1.15,2013-04-25 01:38:00,
2013-04-24 21:43:00,48.1,45.9,29.84,SSE,157,5.0,7.0,92,0.00,,,0.29,0,Wunderground v.1.15,2013-04-25 01:43:00,
2013-04-24 21:49:00,47.9,45.7,29.84,SSW,211,6.0,11.0,92,0.00,,,0.29,0,Wunderground v.1.15,2013-04-25 01:49:00,
2013-04-24 21:54:00,47.8,45.6,29.84,SSW,203,6.0,10.0,92,0.00,,,0.29,0,Wunderground v.1.15,2013-04-25 01:54:00,
2013-04-24 21:59:00,47.7,45.5,29.84,South,184,6.0,10.0,92,0.00,,,0.29,0,Wunderground v.1.15,2013-04-25 01:59:00,
2013-04-24 22:04:00,47.6,45.4,29.85,SSE,167,5.0,7.0,92,0.00,,,0.29,0,Wunderground v.1.15,2013-04-25 02:04:00,
2013-04-24 22:09:00,47.4,45.2,29.85,South,179,5.0,9.0,92,0.00,,,0.29,0,Wunderground v.1.15,2013-04-25 02:09:00,
2013-04-24 22:15:00,47.3,45.1,29.84,SSE,157,6.0,9.0,92,0.00,,,0.29,0,Wunderground v.1.15,2013-04-25 02:15:00,
2013-04-24 22:20:00,47.0,44.8,29.83,SSE,168,6.0,6.0,92,0.00,,,0.29,0,Wunderground v.1.15,2013-04-25 02:20:00,
2013-04-24 22:25:00,46.8,44.6,29.83,SSE,147,6.0,8.0,92,0.00,,,0.29,0,Wunderground v.1.15,2013-04-25 02:25:00,
2013-04-24 22:30:00,46.7,44.5,29.83,SSE,163,5.0,8.0,92,0.00,,,0.29,0,Wunderground v.1.15,2013-04-25 02:30:00,
2013-04-24 22:36:00,46.5,44.3,29.84,South,175,6.0,8.0,92,0.00,,,0.29,0,Wunderground v.1.15,2013-04-25 02:36:00,
2013-04-24 22:41:00,46.4,44.2,29.84,South,175,5.0,7.0,92,0.00,,,0.29,0,Wunderground v.1.15,2013-04-25 02:41:00,
2013-04-24 22:47:00,46.3,44.4,29.85,South,184,5.0,7.0,93,0.00,,,0.29,0,Wunderground v.1.15,2013-04-25 02:47:00,
2013-04-24 22:52:00,46.2,44.3,29.84,SSW,195,5.0,7.0,93,0.00,,,0.29,0,Wunderground v.1.15,2013-04-25 02:52:00,
2013-04-24 22:57:00,46.1,44.2,29.84,South,186,5.0,7.0,93,0.00,,,0.29,0,Wunderground v.1.15,2013-04-25 02:57:00,
2013-04-24 23:03:00,46.0,44.1,29.84,SSE,147,5.0,6.0,93,0.00,,,0.29,0,Wunderground v.1.15,2013-04-25 03:03:00,
2013-04-24 23:08:00,45.9,44.0,29.84,South,190,5.0,6.0,93,0.00,,,0.29,0,Wunderground v.1.15,2013-04-25 03:08:00,
2013-04-24 23:13:00,45.9,44.0,29.84,South,182,5.0,8.0,93,0.00,,,0.29,0,Wunderground v.1.15,2013-04-25 03:13:00,
2013-04-24 23:18:00,45.8,43.9,29.83,SSE,167,5.0,8.0,93,0.00,,,0.29,0,Wunderground v.1.15,2013-04-25 03:18:00,
2013-04-24 23:23:00,45.8,43.9,29.83,South,190,5.0,6.0,93,0.00,,,0.29,0,Wunderground v.1.15,2013-04-25 03:23:00,
2013-04-24 23:29:00,45.8,43.9,29.83,ESE,116,5.0,6.0,93,0.00,,,0.29,0,Wunderground v.1.15,2013-04-25 03:29:00,
2013-04-24 23:34:00,45.8,43.9,29.83,SSW,202,4.0,6.0,93,0.00,,,0.29,0,Wunderground v.1.15,2013-04-25 03:34:00,
2013-04-24 23:39:00,45.9,44.0,29.83,SSW,202,6.0,11.0,93,0.00,,,0.29,0,Wunderground v.1.15,2013-04-25 03:39:00,
2013-04-24 23:45:00,45.9,44.0,29.83,SSW,202,5.0,6.0,93,0.00,,,0.29,0,Wunderground v.1.15,2013-04-25 03:45:00,
2013-04-24 23:50:00,45.9,44.0,29.83,SSE,149,4.0,5.0,93,0.00,,,0.29,0,Wunderground v.1.15,2013-04-25 03:50:00,
2013-04-24 23:55:00,45.8,43.9,29.83,SSW,197,5.0,10.0,93,0.00,,,0.29,0,Wunderground v.1.15,2013-04-25 03:55:00,